Time,TemperatureF,DewpointF,PressureIn,WindDirection,WindDirectionDegrees,WindSpeedMPH,WindSpeedGustMPH,Humidity,HourlyPrecipIn,Conditions,Clouds,dailyrainin,SoftwareType,DateUTC
2013-03-04 00:05:00,26.4,19.9,30.05,SE,126,1.0,1.0,76,0.00,,,0.00,Wunderground v.1.15,2013-03-04 06:05:00,
2013-03-04 00:11:00,26.4,19.9,30.04,SE,124,2.0,2.0,76,0.00,,,0.00,Wunderground v.1.15,2013-03-04 06:11:00,
2013-03-04 00:16:00,26.5,20.0,30.05,SE,124,0.0,2.0,76,0.00,,,0.00,Wunderground v.1.15,2013-03-04 06:16:00,
2013-03-04 00:22:00,26.5,20.0,30.04,ESE,123,0.0,1.0,76,0.00,,,0.00,Wunderground v.1.15,2013-03-04 06:22:00,
2013-03-04 00:28:00,26.5,20.0,30.04,ESE,120,2.0,4.0,76,0.00,,,0.00,Wunderground v.1.15,2013-03-04 06:28:00,
2013-03-04 00:34:00,26.5,20.0,30.04,ESE,120,2.0,2.0,76,0.00,,,0.00,Wunderground v.1.15,2013-03-04 06:34:00,
2013-03-04 00:39:00,26.5,20.0,30.04,ESE,120,0.0,2.0,76,0.00,,,0.00,Wunderground v.1.15,2013-03-04 06:39:00,
2013-03-04 00:44:00,26.4,19.9,30.04,ESE,119,2.0,2.0,76,0.00,,,0.00,Wunderground v.1.15,2013-03-04 06:44:00,
2013-03-04 00:49:00,26.4,19.9,30.04,ESE,107,1.0,5.0,76,0.00,,,0.00,Wunderground v.1.15,2013-03-04 06:49:00,
2013-03-04 00:55:00,26.3,19.8,30.04,ESE,105,1.0,2.0,76,0.00,,,0.00,Wunderground v.1.15,2013-03-04 06:55:00,
2013-03-04 01:00:00,26.3,20.1,30.04,ESE,105,0.0,0.0,77,0.00,,,0.00,Wunderground v.1.15,2013-03-04 07:00:00,
2013-03-04 01:06:00,26.2,19.7,30.03,ESE,104,5.0,5.0,76,0.00,,,0.00,Wunderground v.1.15,2013-03-04 07:06:00,
2013-03-04 01:12:00,26.2,19.7,30.03,East,98,1.0,2.0,76,0.00,,,0.00,Wunderground v.1.15,2013-03-04 07:12:00,
2013-03-04 01:17:00,26.1,19.9,30.02,East,93,4.0,7.0,77,0.00,,,0.00,Wunderground v.1.15,2013-03-04 07:17:00,
2013-03-04 01:22:00,26.0,20.1,30.02,East,88,10.0,10.0,78,0.00,,,0.00,Wunderground v.1.15,2013-03-04 07:22:00,
2013-03-04 01:28:00,25.8,20.2,30.02,East,87,2.0,10.0,79,0.00,,,0.00,Wunderground v.1.15,2013-03-04 07:28:00,
2013-03-04 01:33:00,25.6,20.6,30.02,East,84,4.0,6.0,81,0.00,,,0.00,Wunderground v.1.15,2013-03-04 07:33:00,
2013-03-04 01:38:00,25.5,20.8,30.01,East,84,4.0,7.0,82,0.00,,,0.00,Wunderground v.1.15,2013-03-04 07:38:00,
2013-03-04 01:50:00,25.1,21.2,30.00,East,83,6.0,6.0,85,0.00,,,0.00,Wunderground v.1.15,2013-03-04 07:50:00,
2013-03-04 01:56:00,25.0,21.4,30.00,East,86,4.0,6.0,86,0.00,,,0.00,Wunderground v.1.15,2013-03-04 07:56:00,
2013-03-04 02:01:00,24.9,21.6,30.00,East,84,6.0,6.0,87,0.00,,,0.00,Wunderground v.1.15,2013-03-04 08:01:00,
2013-03-04 02:06:00,24.7,21.4,29.99,East,84,3.0,4.0,87,0.00,,,0.00,Wunderground v.1.15,2013-03-04 08:06:00,
2013-03-04 02:11:00,24.7,21.7,29.99,East,90,5.0,7.0,88,0.00,,,0.00,Wunderground v.1.15,2013-03-04 08:11:00,
2013-03-04 02:16:00,24.5,21.7,29.98,East,97,6.0,12.0,89,0.00,,,0.00,Wunderground v.1.15,2013-03-04 08:16:00,
2013-03-04 02:21:00,24.4,21.6,29.98,East,97,8.0,19.0,89,0.00,,,0.00,Wunderground v.1.15,2013-03-04 08:21:00,
2013-03-04 02:26:00,24.2,21.4,29.98,East,98,6.0,8.0,89,0.00,,,0.00,Wunderground v.1.15,2013-03-04 08:26:00,
2013-03-04 02:31:00,24.1,21.6,29.97,East,92,7.0,14.0,90,0.00,,,0.00,Wunderground v.1.15,2013-03-04 08:31:00,
2013-03-04 02:36:00,24.0,21.5,29.98,East,92,12.0,16.0,90,0.00,,,0.00,Wunderground v.1.15,2013-03-04 08:36:00,
2013-03-04 02:44:00,24.0,21.8,29.97,East,91,11.0,11.0,91,0.00,,,0.00,Wunderground v.1.15,2013-03-04 08:44:00,
2013-03-04 02:49:00,24.0,21.8,29.98,East,85,10.0,13.0,91,0.00,,,0.00,Wunderground v.1.15,2013-03-04 08:49:00,
2013-03-04 02:54:00,24.0,21.8,29.98,East,88,3.0,8.0,91,0.00,,,0.00,Wunderground v.1.15,2013-03-04 08:54:00,
2013-03-04 02:59:00,24.0,21.8,29.98,East,91,5.0,8.0,91,0.00,,,0.00,Wunderground v.1.15,2013-03-04 08:59:00,
2013-03-04 03:04:00,24.1,21.9,29.97,East,86,4.0,4.0,91,0.00,,,0.00,Wunderground v.1.15,2013-03-04 09:04:00,
2013-03-04 03:09:00,24.2,22.2,29.97,East,88,1.0,5.0,92,0.00,,,0.00,Wunderground v.1.15,2013-03-04 09:09:00,
2013-03-04 03:14:00,24.2,22.2,29.97,East,86,6.0,8.0,92,0.00,,,0.00,Wunderground v.1.15,2013-03-04 09:14:00,
2013-03-04 03:19:00,24.2,22.2,29.97,East,84,4.0,8.0,92,0.00,,,0.00,Wunderground v.1.15,2013-03-04 09:19:00,
2013-03-04 03:24:00,24.2,22.2,29.97,East,88,3.0,5.0,92,0.00,,,0.00,Wunderground v.1.15,2013-03-04 09:24:00,
2013-03-04 03:29:00,24.2,22.2,29.96,East,95,2.0,8.0,92,0.00,,,0.00,Wunderground v.1.15,2013-03-04 09:29:00,
2013-03-04 03:34:00,24.2,22.2,29.96,East,90,5.0,9.0,92,0.00,,,0.00,Wunderground v.1.15,2013-03-04 09:34:00,
2013-03-04 03:39:00,24.2,22.2,29.95,East,88,3.0,11.0,92,0.00,,,0.00,Wunderground v.1.15,2013-03-04 09:39:00,
2013-03-04 03:44:00,24.2,22.2,29.95,East,84,10.0,13.0,92,0.00,,,0.00,Wunderground v.1.15,2013-03-04 09:44:00,
2013-03-04 03:49:00,24.2,22.2,29.95,East,84,2.0,13.0,92,0.00,,,0.00,Wunderground v.1.15,2013-03-04 09:49:00,
2013-03-04 03:54:00,24.3,22.6,29.95,East,82,3.0,5.0,93,0.00,,,0.00,Wunderground v.1.15,2013-03-04 09:54:00,
2013-03-04 03:59:00,24.3,22.6,29.95,ENE,76,4.0,7.0,93,0.00,,,0.00,Wunderground v.1.15,2013-03-04 09:59:00,
2013-03-04 04:04:00,24.4,22.7,29.95,East,90,4.0,6.0,93,0.00,,,0.00,Wunderground v.1.15,2013-03-04 10:04:00,
2013-03-04 04:09:00,24.4,22.7,29.95,East,85,5.0,6.0,93,0.00,,,0.00,Wunderground v.1.15,2013-03-04 10:09:00,
2013-03-04 04:14:00,24.5,22.8,29.95,East,80,3.0,13.0,93,0.00,,,0.00,Wunderground v.1.15,2013-03-04 10:14:00,
2013-03-04 04:19:00,24.5,22.8,29.96,East,80,4.0,13.0,93,0.00,,,0.00,Wunderground v.1.15,2013-03-04 10:19:00,
2013-03-04 04:25:00,24.6,22.9,29.95,East,83,4.0,5.0,93,0.00,,,0.00,Wunderground v.1.15,2013-03-04 10:25:00,
2013-03-04 04:30:00,24.5,22.8,29.95,East,89,4.0,6.0,93,0.00,,,0.00,Wunderground v.1.15,2013-03-04 10:30:00,
2013-03-04 04:35:00,24.5,22.8,29.95,East,90,1.0,6.0,93,0.00,,,0.00,Wunderground v.1.15,2013-03-04 10:35:00,
2013-03-04 04:40:00,24.4,22.7,29.95,East,95,6.0,7.0,93,0.00,,,0.00,Wunderground v.1.15,2013-03-04 10:40:00,
2013-03-04 04:45:00,24.4,22.7,29.94,East,82,8.0,20.0,93,0.00,,,0.00,Wunderground v.1.15,2013-03-04 10:45:00,
2013-03-04 04:50:00,24.3,22.6,29.93,East,96,9.0,20.0,93,0.00,,,0.00,Wunderground v.1.15,2013-03-04 10:50:00,
2013-03-04 04:55:00,24.3,22.6,29.92,ESE,117,6.0,14.0,93,0.00,,,0.00,Wunderground v.1.15,2013-03-04 10:55:00,
2013-03-04 05:00:00,24.3,22.6,29.93,East,96,7.0,8.0,93,0.00,,,0.00,Wunderground v.1.15,2013-03-04 11:00:00,
2013-03-04 05:05:00,24.4,22.7,29.94,East,86,10.0,11.0,93,0.00,,,0.00,Wunderground v.1.15,2013-03-04 11:05:00,
2013-03-04 05:10:00,24.4,22.7,29.94,East,86,6.0,11.0,93,0.00,,,0.00,Wunderground v.1.15,2013-03-04 11:10:00,
2013-03-04 05:15:00,24.5,23.0,29.94,East,82,4.0,7.0,94,0.00,,,0.00,Wunderground v.1.15,2013-03-04 11:15:00,
2013-03-04 05:20:00,24.5,23.0,29.94,East,84,4.0,7.0,94,0.00,,,0.00,Wunderground v.1.15,2013-03-04 11:20:00,
2013-03-04 05:25:00,24.5,23.0,29.94,East,84,3.0,7.0,94,0.00,,,0.00,Wunderground v.1.15,2013-03-04 11:25:00,
2013-03-04 05:30:00,24.6,23.1,29.94,East,87,4.0,8.0,94,0.00,,,0.00,Wunderground v.1.15,2013-03-04 11:30:00,
2013-03-04 05:35:00,24.6,22.9,29.94,East,79,5.0,9.0,93,0.00,,,0.00,Wunderground v.1.15,2013-03-04 11:35:00,
2013-03-04 05:40:00,24.5,22.8,29.94,East,82,3.0,9.0,93,0.00,,,0.00,Wunderground v.1.15,2013-03-04 11:40:00,
2013-03-04 05:45:00,24.6,22.9,29.94,East,84,2.0,6.0,93,0.00,,,0.00,Wunderground v.1.15,2013-03-04 11:45:00,
2013-03-04 05:50:00,24.6,23.1,29.93,East,92,6.0,11.0,94,0.00,,,0.00,Wunderground v.1.15,2013-03-04 11:50:00,
2013-03-04 05:55:00,24.7,23.0,29.93,East,92,5.0,5.0,93,0.00,,,0.00,Wunderground v.1.15,2013-03-04 11:55:00,
2013-03-04 06:00:00,24.7,23.0,29.93,ENE,74,4.0,7.0,93,0.00,,,0.00,Wunderground v.1.15,2013-03-04 12:00:00,
2013-03-04 06:05:00,24.7,23.0,29.93,East,96,5.0,8.0,93,0.00,,,0.00,Wunderground v.1.15,2013-03-04 12:05:00,
2013-03-04 06:10:00,24.7,23.0,29.93,East,81,6.0,6.0,93,0.00,,,0.00,Wunderground v.1.15,2013-03-04 12:10:00,
2013-03-04 06:15:00,24.7,23.2,29.92,East,101,5.0,7.0,94,0.00,,,0.00,Wunderground v.1.15,2013-03-04 12:15:00,
2013-03-04 06:20:00,24.8,23.3,29.92,East,88,5.0,8.0,94,0.00,,,0.00,Wunderground v.1.15,2013-03-04 12:20:00,
2013-03-04 06:25:00,24.7,23.0,29.92,East,94,5.0,7.0,93,0.00,,,0.00,Wunderground v.1.15,2013-03-04 12:25:00,
2013-03-04 06:30:00,24.7,23.0,29.92,East,88,5.0,8.0,93,0.00,,,0.00,Wunderground v.1.15,2013-03-04 12:30:00,
2013-03-04 06:35:00,24.7,23.0,29.92,East,81,5.0,7.0,93,0.00,,,0.00,Wunderground v.1.15,2013-03-04 12:35:00,
2013-03-04 06:41:00,24.7,23.0,29.92,ESE,103,5.0,9.0,93,0.00,,,0.00,Wunderground v.1.15,2013-03-04 12:41:00,
2013-03-04 06:46:00,24.7,23.0,29.92,East,89,3.0,7.0,93,0.00,,,0.00,Wunderground v.1.15,2013-03-04 12:46:00,
2013-03-04 06:51:00,24.7,23.0,29.92,ENE,75,4.0,7.0,93,0.00,,,0.00,Wunderground v.1.15,2013-03-04 12:51:00,
2013-03-04 06:56:00,24.7,23.0,29.93,East,97,4.0,7.0,93,0.00,,,0.00,Wunderground v.1.15,2013-03-04 12:56:00,
2013-03-04 07:02:00,24.7,23.0,29.93,East,83,3.0,3.0,93,0.00,,,0.00,Wunderground v.1.15,2013-03-04 13:02:00,
2013-03-04 07:09:00,24.6,22.9,29.93,East,87,2.0,4.0,93,0.00,,,0.00,Wunderground v.1.15,2013-03-04 13:09:00,
2013-03-04 07:14:00,24.6,22.9,29.93,ESE,111,6.0,7.0,93,0.00,,,0.00,Wunderground v.1.15,2013-03-04 13:14:00,
2013-03-04 07:19:00,24.6,22.9,29.94,East,84,3.0,10.0,93,0.00,,,0.00,Wunderground v.1.15,2013-03-04 13:19:00,
2013-03-04 07:24:00,24.6,22.9,29.94,East,90,4.0,10.0,93,0.00,,,0.00,Wunderground v.1.15,2013-03-04 13:24:00,
2013-03-04 07:29:00,24.7,23.0,29.94,East,82,3.0,10.0,93,0.00,,,0.00,Wunderground v.1.15,2013-03-04 13:29:00,
2013-03-04 07:34:00,24.7,23.0,29.94,East,88,3.0,6.0,93,0.00,,,0.00,Wunderground v.1.15,2013-03-04 13:34:00,
2013-03-04 07:39:00,24.8,23.1,29.93,East,90,5.0,8.0,93,0.00,,,0.00,Wunderground v.1.15,2013-03-04 13:39:00,
2013-03-04 07:44:00,24.9,23.2,29.93,East,79,6.0,7.0,93,0.00,,,0.00,Wunderground v.1.15,2013-03-04 13:44:00,
2013-03-04 07:49:00,25.0,23.3,29.93,East,84,5.0,7.0,93,0.00,,,0.00,Wunderground v.1.15,2013-03-04 13:49:00,
2013-03-04 07:54:00,25.0,23.3,29.93,ENE,78,3.0,6.0,93,0.00,,,0.00,Wunderground v.1.15,2013-03-04 13:54:00,
2013-03-04 07:59:00,25.1,23.4,29.93,East,92,4.0,8.0,93,0.00,,,0.00,Wunderground v.1.15,2013-03-04 13:59:00,
2013-03-04 08:04:00,25.1,23.4,29.93,East,88,3.0,7.0,93,0.00,,,0.00,Wunderground v.1.15,2013-03-04 14:04:00,
2013-03-04 08:09:00,25.2,23.5,29.93,East,84,5.0,6.0,93,0.00,,,0.00,Wunderground v.1.15,2013-03-04 14:09:00,
2013-03-04 08:14:00,25.4,23.7,29.93,East,96,2.0,8.0,93,0.00,,,0.00,Wunderground v.1.15,2013-03-04 14:14:00,
2013-03-04 08:19:00,25.5,23.8,29.92,East,81,3.0,8.0,93,0.00,,,0.00,Wunderground v.1.15,2013-03-04 14:19:00,
2013-03-04 08:24:00,25.6,23.9,29.92,ENE,78,2.0,6.0,93,0.00,,,0.00,Wunderground v.1.15,2013-03-04 14:24:00,
2013-03-04 08:29:00,25.8,24.1,29.92,East,86,3.0,8.0,93,0.00,,,0.00,Wunderground v.1.15,2013-03-04 14:29:00,
2013-03-04 08:34:00,26.0,24.3,29.92,East,90,7.0,7.0,93,0.00,,,0.00,Wunderground v.1.15,2013-03-04 14:34:00,
2013-03-04 08:39:00,26.1,24.4,29.92,East,94,2.0,7.0,93,0.00,,,0.00,Wunderground v.1.15,2013-03-04 14:39:00,
2013-03-04 08:44:00,26.2,24.5,29.92,East,79,4.0,8.0,93,0.00,,,0.00,Wunderground v.1.15,2013-03-04 14:44:00,
2013-03-04 08:49:00,26.3,24.3,29.92,East,95,5.0,8.0,92,0.00,,,0.00,Wunderground v.1.15,2013-03-04 14:49:00,
2013-03-04 08:54:00,26.5,24.5,29.91,ESE,105,5.0,6.0,92,0.00,,,0.00,Wunderground v.1.15,2013-03-04 14:54:00,
2013-03-04 08:59:00,26.7,24.9,29.92,East,98,4.0,8.0,93,0.00,,,0.00,Wunderground v.1.15,2013-03-04 14:59:00,
2013-03-04 09:04:00,27.0,25.0,29.92,East,82,4.0,7.0,92,0.00,,,0.00,Wunderground v.1.15,2013-03-04 15:04:00,
2013-03-04 09:09:00,27.2,25.2,29.92,East,92,5.0,5.0,92,0.00,,,0.00,Wunderground v.1.15,2013-03-04 15:09:00,
2013-03-04 09:14:00,27.4,25.4,29.92,East,86,3.0,6.0,92,0.00,,,0.00,Wunderground v.1.15,2013-03-04 15:14:00,
2013-03-04 09:19:00,27.5,25.5,29.91,East,88,5.0,8.0,92,0.00,,,0.00,Wunderground v.1.15,2013-03-04 15:19:00,
2013-03-04 09:25:00,27.5,25.5,29.91,East,86,5.0,8.0,92,0.00,,,0.00,Wunderground v.1.15,2013-03-04 15:25:00,
2013-03-04 09:30:00,27.7,25.7,29.91,East,83,5.0,8.0,92,0.00,,,0.00,Wunderground v.1.15,2013-03-04 15:30:00,
2013-03-04 09:35:00,27.9,25.9,29.91,ESE,111,7.0,8.0,92,0.00,,,0.00,Wunderground v.1.15,2013-03-04 15:35:00,
2013-03-04 09:40:00,28.0,25.7,29.91,East,84,6.0,9.0,91,0.00,,,0.00,Wunderground v.1.15,2013-03-04 15:40:00,
2013-03-04 09:45:00,28.0,25.7,29.91,ENE,76,6.0,6.0,91,0.00,,,0.00,Wunderground v.1.15,2013-03-04 15:45:00,
2013-03-04 09:50:00,28.1,25.8,29.90,East,89,3.0,7.0,91,0.00,,,0.00,Wunderground v.1.15,2013-03-04 15:50:00,
2013-03-04 09:55:00,28.4,26.1,29.90,East,88,4.0,8.0,91,0.00,,,0.00,Wunderground v.1.15,2013-03-04 15:55:00,
2013-03-04 10:00:00,28.4,25.8,29.90,East,98,5.0,7.0,90,0.00,,,0.00,Wunderground v.1.15,2013-03-04 16:00:00,
2013-03-04 10:05:00,28.4,25.8,29.90,East,89,4.0,7.0,90,0.00,,,0.01,Wunderground v.1.15,2013-03-04 16:05:00,
2013-03-04 10:10:00,28.4,25.8,29.90,ENE,68,5.0,5.0,90,0.00,,,0.01,Wunderground v.1.15,2013-03-04 16:10:00,
2013-03-04 10:15:00,28.5,25.9,29.90,ESE,113,2.0,7.0,90,0.00,,,0.01,Wunderground v.1.15,2013-03-04 16:15:00,
2013-03-04 10:20:00,28.7,26.1,29.90,East,80,5.0,11.0,90,0.00,,,0.01,Wunderground v.1.15,2013-03-04 16:20:00,
2013-03-04 10:25:00,29.0,26.4,29.90,ENE,78,5.0,9.0,90,0.00,,,0.01,Wunderground v.1.15,2013-03-04 16:25:00,
2013-03-04 10:30:00,29.4,26.8,29.89,ENE,74,6.0,10.0,90,0.00,,,0.02,Wunderground v.1.15,2013-03-04 16:30:00,
2013-03-04 10:35:00,29.7,27.1,29.90,East,88,3.0,5.0,90,0.00,,,0.02,Wunderground v.1.15,2013-03-04 16:35:00,
2013-03-04 10:40:00,29.6,26.8,29.90,ENE,78,4.0,8.0,89,0.00,,,0.02,Wunderground v.1.15,2013-03-04 16:40:00,
2013-03-04 10:45:00,29.8,27.0,29.90,ENE,67,3.0,11.0,89,0.00,,,0.02,Wunderground v.1.15,2013-03-04 16:45:00,
2013-03-04 10:50:00,30.1,27.3,29.90,East,96,7.0,11.0,89,0.00,,,0.03,Wunderground v.1.15,2013-03-04 16:50:00,
2013-03-04 10:55:00,30.2,27.3,29.90,East,92,9.0,9.0,89,0.00,,,0.03,Wunderground v.1.15,2013-03-04 16:55:00,
2013-03-04 11:00:00,30.4,27.3,29.90,ENE,77,4.0,6.0,88,0.05,,,0.04,Wunderground v.1.15,2013-03-04 17:00:00,
2013-03-04 11:05:00,30.6,27.5,29.90,East,81,6.0,8.0,88,0.08,,,0.05,Wunderground v.1.15,2013-03-04 17:05:00,
2013-03-04 11:10:00,30.8,27.7,29.90,East,90,7.0,7.0,88,0.08,,,0.05,Wunderground v.1.15,2013-03-04 17:10:00,
2013-03-04 11:15:00,31.1,27.7,29.90,East,83,5.0,8.0,87,0.06,,,0.05,Wunderground v.1.15,2013-03-04 17:15:00,
2013-03-04 11:20:00,31.3,27.9,29.90,ENE,72,3.0,11.0,87,0.04,,,0.05,Wunderground v.1.15,2013-03-04 17:20:00,
2013-03-04 11:25:00,31.5,28.1,29.90,East,96,6.0,7.0,87,0.04,,,0.06,Wunderground v.1.15,2013-03-04 17:25:00,
2013-03-04 11:30:00,31.6,28.2,29.90,East,94,5.0,8.0,87,0.09,,,0.07,Wunderground v.1.15,2013-03-04 17:30:00,
2013-03-04 11:35:00,31.3,27.3,29.90,ENE,77,4.0,11.0,85,0.07,,,0.07,Wunderground v.1.15,2013-03-04 17:35:00,
2013-03-04 11:40:00,31.2,27.5,29.91,East,97,4.0,11.0,86,0.05,,,0.08,Wunderground v.1.15,2013-03-04 17:40:00,
2013-03-04 11:45:00,31.2,27.5,29.90,ESE,105,7.0,9.0,86,0.05,,,0.08,Wunderground v.1.15,2013-03-04 17:45:00,
2013-03-04 11:50:00,31.0,27.3,29.90,East,85,3.0,10.0,86,0.05,,,0.08,Wunderground v.1.15,2013-03-04 17:50:00,
2013-03-04 11:55:00,31.1,27.4,29.91,East,79,4.0,12.0,86,0.05,,,0.09,Wunderground v.1.15,2013-03-04 17:55:00,
2013-03-04 12:01:00,31.3,27.6,29.91,East,84,5.0,6.0,86,0.05,,,0.09,Wunderground v.1.15,2013-03-04 18:01:00,
2013-03-04 12:06:00,31.5,27.8,29.90,East,98,4.0,9.0,86,0.04,,,0.09,Wunderground v.1.15,2013-03-04 18:06:00,
2013-03-04 12:11:00,31.7,28.0,29.90,ENE,78,3.0,8.0,86,0.00,,,0.10,Wunderground v.1.15,2013-03-04 18:11:00,
2013-03-04 12:16:00,31.9,28.2,29.90,East,86,6.0,8.0,86,0.00,,,0.10,Wunderground v.1.15,2013-03-04 18:16:00,
2013-03-04 12:23:00,32.1,28.1,29.90,ENE,74,5.0,5.0,85,0.05,,,0.11,Wunderground v.1.15,2013-03-04 18:23:00,
2013-03-04 12:28:00,32.1,28.1,29.89,East,89,3.0,14.0,85,0.05,,,0.11,Wunderground v.1.15,2013-03-04 18:28:00,
2013-03-04 12:29:00,32.0,28.0,29.89,East,83,15.0,15.0,85,0.05,,,0.11,Wunderground v.1.15,2013-03-04 18:29:00,
2013-03-04 12:30:00,32.1,28.1,29.89,ESE,103,8.0,15.0,85,0.05,,,0.11,Wunderground v.1.15,2013-03-04 18:30:00,
2013-03-04 12:35:00,31.9,27.6,29.89,East,86,10.0,14.0,84,0.04,,,0.11,Wunderground v.1.15,2013-03-04 18:35:00,
2013-03-04 12:40:00,31.6,27.6,29.88,East,84,14.0,15.0,85,0.00,,,0.11,Wunderground v.1.15,2013-03-04 18:40:00,
2013-03-04 12:45:00,32.1,28.4,29.89,ESE,111,4.0,11.0,86,0.00,,,0.11,Wunderground v.1.15,2013-03-04 18:45:00,
2013-03-04 12:50:00,32.7,28.7,29.88,ENE,74,5.0,11.0,85,0.00,,,0.11,Wunderground v.1.15,2013-03-04 18:50:00,
2013-03-04 12:55:00,32.8,28.5,29.88,East,82,3.0,5.0,84,0.00,,,0.12,Wunderground v.1.15,2013-03-04 18:55:00,
2013-03-04 13:00:00,32.7,28.4,29.88,East,85,3.0,6.0,84,0.00,,,0.12,Wunderground v.1.15,2013-03-04 19:00:00,
2013-03-04 13:05:00,32.8,28.5,29.88,ENE,78,4.0,8.0,84,0.00,,,0.12,Wunderground v.1.15,2013-03-04 19:05:00,
2013-03-04 13:10:00,32.9,28.6,29.88,East,88,3.0,5.0,84,0.00,,,0.12,Wunderground v.1.15,2013-03-04 19:10:00,
2013-03-04 13:15:00,32.7,28.4,29.88,ESE,119,6.0,8.0,84,0.00,,,0.12,Wunderground v.1.15,2013-03-04 19:15:00,
2013-03-04 13:20:00,32.9,28.6,29.88,East,84,5.0,5.0,84,0.00,,,0.13,Wunderground v.1.15,2013-03-04 19:20:00,
2013-03-04 13:25:00,33.2,28.9,29.88,ESE,105,7.0,9.0,84,0.00,,,0.13,Wunderground v.1.15,2013-03-04 19:25:00,
2013-03-04 13:30:00,33.1,28.5,29.88,ENE,75,4.0,9.0,83,0.00,,,0.13,Wunderground v.1.15,2013-03-04 19:30:00,
2013-03-04 13:36:00,32.9,28.3,29.88,ESE,102,6.0,6.0,83,0.00,,,0.13,Wunderground v.1.15,2013-03-04 19:36:00,
2013-03-04 13:42:00,32.6,28.0,29.87,East,82,4.0,5.0,83,0.00,,,0.13,Wunderground v.1.15,2013-03-04 19:42:00,
2013-03-04 13:47:00,32.8,28.2,29.87,East,97,5.0,7.0,83,0.00,,,0.13,Wunderground v.1.15,2013-03-04 19:47:00,
2013-03-04 13:53:00,32.8,28.2,29.87,ENE,77,7.0,7.0,83,0.00,,,0.13,Wunderground v.1.15,2013-03-04 19:53:00,
2013-03-04 13:58:00,32.8,28.2,29.87,East,87,4.0,8.0,83,0.00,,,0.13,Wunderground v.1.15,2013-03-04 19:58:00,
2013-03-04 14:03:00,32.7,28.1,29.87,East,80,3.0,3.0,83,0.00,,,0.13,Wunderground v.1.15,2013-03-04 20:03:00,
2013-03-04 14:09:00,32.5,27.9,29.87,ENE,65,5.0,8.0,83,0.00,,,0.13,Wunderground v.1.15,2013-03-04 20:09:00,
2013-03-04 14:14:00,32.4,27.8,29.87,ESE,105,8.0,8.0,83,0.00,,,0.13,Wunderground v.1.15,2013-03-04 20:14:00,
2013-03-04 14:19:00,32.3,27.7,29.87,SE,128,6.0,11.0,83,0.00,,,0.13,Wunderground v.1.15,2013-03-04 20:19:00,
2013-03-04 14:24:00,32.2,27.9,29.87,East,82,5.0,12.0,84,0.00,,,0.13,Wunderground v.1.15,2013-03-04 20:24:00,
2013-03-04 14:29:00,32.3,28.0,29.87,East,96,4.0,14.0,84,0.00,,,0.13,Wunderground v.1.15,2013-03-04 20:29:00,
2013-03-04 14:34:00,32.5,28.2,29.86,ESE,112,7.0,8.0,84,0.00,,,0.13,Wunderground v.1.15,2013-03-04 20:34:00,
2013-03-04 14:39:00,32.7,28.1,29.86,East,87,6.0,8.0,83,0.00,,,0.13,Wunderground v.1.15,2013-03-04 20:39:00,
2013-03-04 14:45:00,33.0,28.7,29.86,East,83,5.0,5.0,84,0.00,,,0.13,Wunderground v.1.15,2013-03-04 20:45:00,
2013-03-04 14:50:00,33.1,28.5,29.86,East,94,5.0,8.0,83,0.00,,,0.13,Wunderground v.1.15,2013-03-04 20:50:00,
2013-03-04 14:55:00,32.9,28.3,29.86,East,97,6.0,14.0,83,0.00,,,0.13,Wunderground v.1.15,2013-03-04 20:55:00,
2013-03-04 15:00:00,32.7,28.1,29.87,East,84,4.0,6.0,83,0.00,,,0.13,Wunderground v.1.15,2013-03-04 21:00:00,
2013-03-04 15:05:00,32.5,27.9,29.86,East,94,6.0,8.0,83,0.00,,,0.13,Wunderground v.1.15,2013-03-04 21:05:00,
2013-03-04 15:10:00,32.2,27.6,29.86,SE,136,5.0,7.0,83,0.00,,,0.13,Wunderground v.1.15,2013-03-04 21:10:00,
2013-03-04 15:15:00,32.2,27.9,29.87,East,82,2.0,9.0,84,0.00,,,0.13,Wunderground v.1.15,2013-03-04 21:15:00,
2013-03-04 15:20:00,32.1,27.8,29.87,East,94,4.0,12.0,84,0.00,,,0.13,Wunderground v.1.15,2013-03-04 21:20:00,
2013-03-04 15:25:00,32.2,27.9,29.87,East,90,5.0,8.0,84,0.00,,,0.13,Wunderground v.1.15,2013-03-04 21:25:00,
2013-03-04 15:30:00,32.3,28.0,29.88,East,86,5.0,8.0,84,0.00,,,0.13,Wunderground v.1.15,2013-03-04 21:30:00,
2013-03-04 15:38:00,32.3,28.0,29.88,East,96,5.0,8.0,84,0.00,,,0.13,Wunderground v.1.15,2013-03-04 21:38:00,
2013-03-04 15:43:00,32.3,28.0,29.87,East,99,5.0,5.0,84,0.00,,,0.13,Wunderground v.1.15,2013-03-04 21:43:00,
2013-03-04 15:48:00,32.3,28.0,29.88,East,97,6.0,10.0,84,0.00,,,0.13,Wunderground v.1.15,2013-03-04 21:48:00,
2013-03-04 15:57:00,32.0,27.7,29.88,ESE,115,7.0,7.0,84,0.00,,,0.13,Wunderground v.1.15,2013-03-04 21:57:00,
2013-03-04 16:03:00,31.9,27.6,29.88,ESE,119,7.0,7.0,84,0.00,,,0.13,Wunderground v.1.15,2013-03-04 22:03:00,
2013-03-04 16:08:00,31.7,27.4,29.88,East,88,5.0,8.0,84,0.00,,,0.13,Wunderground v.1.15,2013-03-04 22:08:00,
2013-03-04 16:15:00,31.6,27.3,29.88,ESE,105,4.0,5.0,84,0.00,,,0.13,Wunderground v.1.15,2013-03-04 22:15:00,
2013-03-04 16:20:00,31.6,27.3,29.88,East,90,5.0,8.0,84,0.00,,,0.13,Wunderground v.1.15,2013-03-04 22:20:00,
2013-03-04 16:25:00,31.6,27.3,29.88,East,83,5.0,8.0,84,0.00,,,0.13,Wunderground v.1.15,2013-03-04 22:25:00,
2013-03-04 16:30:00,31.7,27.4,29.89,East,92,5.0,8.0,84,0.00,,,0.13,Wunderground v.1.15,2013-03-04 22:30:00,
2013-03-04 16:35:00,31.7,27.4,29.89,East,98,4.0,8.0,84,0.00,,,0.13,Wunderground v.1.15,2013-03-04 22:35:00,
2013-03-04 16:40:00,31.7,27.7,29.89,ESE,106,2.0,8.0,85,0.00,,,0.13,Wunderground v.1.15,2013-03-04 22:40:00,
2013-03-04 16:45:00,31.6,27.6,29.89,ESE,105,7.0,7.0,85,0.00,,,0.13,Wunderground v.1.15,2013-03-04 22:45:00,
2013-03-04 16:50:00,31.5,27.5,29.90,ESE,111,2.0,11.0,85,0.00,,,0.13,Wunderground v.1.15,2013-03-04 22:50:00,
2013-03-04 16:55:00,31.5,27.5,29.89,ESE,103,2.0,6.0,85,0.00,,,0.13,Wunderground v.1.15,2013-03-04 22:55:00,
2013-03-04 17:00:00,31.3,27.3,29.90,East,101,4.0,4.0,85,0.00,,,0.13,Wunderground v.1.15,2013-03-04 23:00:00,
2013-03-04 17:05:00,31.1,27.1,29.90,East,91,8.0,8.0,85,0.00,,,0.13,Wunderground v.1.15,2013-03-04 23:05:00,
2013-03-04 17:10:00,31.0,27.0,29.91,ESE,111,6.0,7.0,85,0.00,,,0.13,Wunderground v.1.15,2013-03-04 23:10:00,
2013-03-04 17:15:00,30.9,26.9,29.90,ESE,103,5.0,8.0,85,0.00,,,0.13,Wunderground v.1.15,2013-03-04 23:15:00,
2013-03-04 17:20:00,30.7,26.7,29.90,ESE,103,4.0,11.0,85,0.00,,,0.13,Wunderground v.1.15,2013-03-04 23:20:00,
2013-03-04 17:26:00,30.5,26.5,29.90,East,93,4.0,6.0,85,0.00,,,0.13,Wunderground v.1.15,2013-03-04 23:26:00,
2013-03-04 17:32:00,30.3,26.3,29.90,East,95,4.0,6.0,85,0.00,,,0.13,Wunderground v.1.15,2013-03-04 23:32:00,
2013-03-04 17:38:00,30.2,26.5,29.91,ESE,113,4.0,6.0,86,0.00,,,0.13,Wunderground v.1.15,2013-03-04 23:38:00,
2013-03-04 17:45:00,30.1,26.1,29.91,ESE,111,4.0,4.0,85,0.00,,,0.13,Wunderground v.1.15,2013-03-04 23:45:00,
2013-03-04 17:50:00,30.0,26.3,29.91,ESE,119,4.0,6.0,86,0.00,,,0.13,Wunderground v.1.15,2013-03-04 23:50:00,
2013-03-04 17:55:00,29.9,25.9,29.91,ESE,108,6.0,6.0,85,0.00,,,0.13,Wunderground v.1.15,2013-03-04 23:55:00,
2013-03-04 18:00:00,29.8,26.1,29.91,ESE,103,2.0,5.0,86,0.00,,,0.13,Wunderground v.1.15,2013-03-05 00:00:00,
2013-03-04 18:05:00,29.7,26.0,29.92,East,101,5.0,5.0,86,0.00,,,0.13,Wunderground v.1.15,2013-03-05 00:05:00,
2013-03-04 18:10:00,29.6,25.9,29.92,East,101,4.0,4.0,86,0.00,,,0.13,Wunderground v.1.15,2013-03-05 00:10:00,
2013-03-04 18:15:00,29.4,25.7,29.92,East,98,2.0,6.0,86,0.00,,,0.13,Wunderground v.1.15,2013-03-05 00:15:00,
2013-03-04 18:20:00,29.4,25.7,29.92,ESE,117,5.0,7.0,86,0.00,,,0.13,Wunderground v.1.15,2013-03-05 00:20:00,
2013-03-04 18:25:00,29.3,25.4,29.93,East,79,2.0,6.0,85,0.00,,,0.13,Wunderground v.1.15,2013-03-05 00:25:00,
2013-03-04 18:30:00,29.3,25.4,29.93,East,95,2.0,6.0,85,0.00,,,0.13,Wunderground v.1.15,2013-03-05 00:30:00,
2013-03-04 18:35:00,29.2,25.3,29.93,ESE,103,2.0,5.0,85,0.00,,,0.13,Wunderground v.1.15,2013-03-05 00:35:00,
2013-03-04 18:40:00,29.1,25.2,29.94,ESE,103,2.0,5.0,85,0.00,,,0.13,Wunderground v.1.15,2013-03-05 00:40:00,
2013-03-04 18:45:00,28.9,25.0,29.94,ESE,103,4.0,4.0,85,0.00,,,0.13,Wunderground v.1.15,2013-03-05 00:45:00,
2013-03-04 18:50:00,28.8,24.9,29.94,ESE,105,4.0,5.0,85,0.00,,,0.13,Wunderground v.1.15,2013-03-05 00:50:00,
2013-03-04 18:55:00,28.7,24.8,29.94,East,98,4.0,6.0,85,0.00,,,0.13,Wunderground v.1.15,2013-03-05 00:55:00,
2013-03-04 19:00:00,28.5,24.6,29.94,ESE,104,5.0,5.0,85,0.00,,,0.13,Wunderground v.1.15,2013-03-05 01:00:00,
2013-03-04 19:05:00,28.4,24.5,29.94,ESE,110,2.0,5.0,85,0.00,,,0.13,Wunderground v.1.15,2013-03-05 01:05:00,
2013-03-04 19:10:00,28.3,24.4,29.94,ESE,110,2.0,5.0,85,0.00,,,0.13,Wunderground v.1.15,2013-03-05 01:10:00,
2013-03-04 19:15:00,28.2,24.3,29.94,ESE,106,4.0,5.0,85,0.00,,,0.13,Wunderground v.1.15,2013-03-05 01:15:00,
2013-03-04 19:20:00,28.0,24.1,29.94,ESE,104,4.0,6.0,85,0.00,,,0.13,Wunderground v.1.15,2013-03-05 01:20:00,
2013-03-04 19:33:00,27.8,23.9,29.95,ESE,111,4.0,4.0,85,0.00,,,0.13,Wunderground v.1.15,2013-03-05 01:33:00,
2013-03-04 19:38:00,27.6,24.0,29.95,ESE,109,4.0,5.0,86,0.00,,,0.13,Wunderground v.1.15,2013-03-05 01:38:00,
2013-03-04 19:45:00,27.4,23.8,29.95,ESE,103,2.0,3.0,86,0.00,,,0.13,Wunderground v.1.15,2013-03-05 01:45:00,
2013-03-04 19:50:00,27.3,23.7,29.95,ESE,107,4.0,6.0,86,0.00,,,0.13,Wunderground v.1.15,2013-03-05 01:50:00,
2013-03-04 19:55:00,27.2,23.6,29.95,ESE,111,4.0,4.0,86,0.00,,,0.13,Wunderground v.1.15,2013-03-05 01:55:00,
2013-03-04 20:00:00,27.1,23.5,29.95,ESE,110,4.0,4.0,86,0.00,,,0.13,Wunderground v.1.15,2013-03-05 02:00:00,
2013-03-04 20:05:00,27.0,23.6,29.95,ESE,107,1.0,5.0,87,0.00,,,0.13,Wunderground v.1.15,2013-03-05 02:05:00,
2013-03-04 20:10:00,27.0,23.6,29.95,ESE,105,1.0,4.0,87,0.00,,,0.13,Wunderground v.1.15,2013-03-05 02:10:00,
2013-03-04 20:15:00,26.9,23.5,29.95,ESE,105,2.0,4.0,87,0.00,,,0.13,Wunderground v.1.15,2013-03-05 02:15:00,
2013-03-04 20:20:00,26.8,23.4,29.96,ESE,107,4.0,5.0,87,0.00,,,0.13,Wunderground v.1.15,2013-03-05 02:20:00,
2013-03-04 20:25:00,26.8,23.4,29.96,ESE,110,1.0,4.0,87,0.00,,,0.13,Wunderground v.1.15,2013-03-05 02:25:00,
2013-03-04 20:30:00,26.7,23.4,29.96,ESE,110,2.0,4.0,87,0.00,,,0.13,Wunderground v.1.15,2013-03-05 02:30:00,
2013-03-04 20:35:00,26.7,23.6,29.96,ESE,109,1.0,5.0,88,0.00,,,0.13,Wunderground v.1.15,2013-03-05 02:35:00,
2013-03-04 20:40:00,26.7,23.6,29.96,ESE,109,1.0,5.0,88,0.00,,,0.13,Wunderground v.1.15,2013-03-05 02:40:00,
2013-03-04 20:45:00,26.8,23.7,29.96,ESE,109,1.0,2.0,88,0.00,,,0.13,Wunderground v.1.15,2013-03-05 02:45:00,
2013-03-04 20:50:00,26.8,23.7,29.97,ESE,108,0.0,5.0,88,0.00,,,0.13,Wunderground v.1.15,2013-03-05 02:50:00,
2013-03-04 20:55:00,26.8,23.7,29.97,ESE,108,0.0,4.0,88,0.00,,,0.13,Wunderground v.1.15,2013-03-05 02:55:00,
2013-03-04 21:00:00,26.9,24.1,29.98,ESE,108,1.0,1.0,89,0.00,,,0.13,Wunderground v.1.15,2013-03-05 03:00:00,
2013-03-04 21:05:00,27.0,24.2,29.97,ESE,108,1.0,4.0,89,0.00,,,0.13,Wunderground v.1.15,2013-03-05 03:05:00,
2013-03-04 21:10:00,27.1,24.3,29.97,ESE,108,1.0,4.0,89,0.00,,,0.13,Wunderground v.1.15,2013-03-05 03:10:00,
2013-03-04 21:15:00,27.1,24.3,29.98,ESE,108,0.0,1.0,89,0.00,,,0.13,Wunderground v.1.15,2013-03-05 03:15:00,
2013-03-04 21:20:00,27.2,24.4,29.98,ESE,108,0.0,1.0,89,0.00,,,0.13,Wunderground v.1.15,2013-03-05 03:20:00,
2013-03-04 21:25:00,27.2,24.4,29.98,ESE,108,0.0,0.0,89,0.00,,,0.13,Wunderground v.1.15,2013-03-05 03:25:00,
2013-03-04 21:30:00,27.2,24.4,29.99,ESE,108,0.0,0.0,89,0.00,,,0.13,Wunderground v.1.15,2013-03-05 03:30:00,
2013-03-04 21:35:00,27.2,24.4,29.99,ESE,108,0.0,0.0,89,0.00,,,0.13,Wunderground v.1.15,2013-03-05 03:35:00,
2013-03-04 21:40:00,27.1,24.3,29.99,ESE,108,0.0,0.0,89,0.00,,,0.13,Wunderground v.1.15,2013-03-05 03:40:00,
2013-03-04 21:45:00,26.9,24.1,29.99,ESE,108,0.0,0.0,89,0.00,,,0.13,Wunderground v.1.15,2013-03-05 03:45:00,
2013-03-04 21:50:00,26.7,23.9,29.99,ESE,108,1.0,2.0,89,0.00,,,0.13,Wunderground v.1.15,2013-03-05 03:50:00,
2013-03-04 21:55:00,26.6,24.1,30.00,ESE,108,0.0,2.0,90,0.00,,,0.13,Wunderground v.1.15,2013-03-05 03:55:00,
2013-03-04 22:01:00,26.6,24.1,29.99,ESE,108,2.0,2.0,90,0.00,,,0.13,Wunderground v.1.15,2013-03-05 04:01:00,
2013-03-04 22:06:00,26.6,24.1,29.99,ESE,108,0.0,0.0,90,0.00,,,0.13,Wunderground v.1.15,2013-03-05 04:06:00,
2013-03-04 22:11:00,26.6,24.3,29.99,ESE,108,0.0,0.0,91,0.00,,,0.13,Wunderground v.1.15,2013-03-05 04:11:00,
2013-03-04 22:16:00,26.7,24.4,29.99,ESE,108,0.0,0.0,91,0.00,,,0.13,Wunderground v.1.15,2013-03-05 04:16:00,
2013-03-04 22:21:00,26.7,24.4,29.99,ESE,108,1.0,1.0,91,0.00,,,0.13,Wunderground v.1.15,2013-03-05 04:21:00,
2013-03-04 22:26:00,26.9,24.6,29.99,ESE,108,2.0,4.0,91,0.00,,,0.13,Wunderground v.1.15,2013-03-05 04:26:00,
2013-03-04 22:31:00,27.1,24.8,29.99,ESE,108,0.0,4.0,91,0.00,,,0.13,Wunderground v.1.15,2013-03-05 04:31:00,
2013-03-04 22:36:00,27.3,24.8,29.99,ESE,108,2.0,2.0,90,0.00,,,0.13,Wunderground v.1.15,2013-03-05 04:36:00,
2013-03-04 22:42:00,27.5,25.0,29.98,ESE,108,2.0,2.0,90,0.00,,,0.13,Wunderground v.1.15,2013-03-05 04:42:00,
2013-03-04 22:47:00,27.6,25.1,29.98,ESE,107,1.0,4.0,90,0.00,,,0.13,Wunderground v.1.15,2013-03-05 04:47:00,
2013-03-04 22:52:00,27.7,25.2,29.98,ESE,107,2.0,2.0,90,0.00,,,0.13,Wunderground v.1.15,2013-03-05 04:52:00,
2013-03-04 22:58:00,27.7,24.9,29.98,ESE,107,1.0,5.0,89,0.00,,,0.13,Wunderground v.1.15,2013-03-05 04:58:00,
2013-03-04 23:00:00,27.7,24.9,29.98,ESE,107,1.0,2.0,89,0.00,,,0.13,Wunderground v.1.15,2013-03-05 05:00:00,
2013-03-04 23:01:00,27.8,25.0,29.98,ESE,107,1.0,2.0,89,0.00,,,0.13,Wunderground v.1.15,2013-03-05 05:01:00,
2013-03-04 23:06:00,27.8,25.0,29.98,ESE,107,1.0,5.0,89,0.00,,,0.13,Wunderground v.1.15,2013-03-05 05:06:00,
2013-03-04 23:11:00,27.8,25.0,29.98,ESE,107,2.0,2.0,89,0.00,,,0.13,Wunderground v.1.15,2013-03-05 05:11:00,
2013-03-04 23:16:00,27.8,25.0,29.98,ESE,107,1.0,4.0,89,0.00,,,0.13,Wunderground v.1.15,2013-03-05 05:16:00,
2013-03-04 23:22:00,27.8,25.0,29.98,ESE,107,1.0,1.0,89,0.00,,,0.13,Wunderground v.1.15,2013-03-05 05:22:00,
2013-03-04 23:27:00,27.9,25.1,29.98,ESE,105,2.0,5.0,89,0.00,,,0.13,Wunderground v.1.15,2013-03-05 05:27:00,
2013-03-04 23:32:00,27.9,25.1,29.98,ESE,105,2.0,2.0,89,0.00,,,0.13,Wunderground v.1.15,2013-03-05 05:32:00,
2013-03-04 23:37:00,27.9,25.1,29.97,East,101,4.0,5.0,89,0.00,,,0.13,Wunderground v.1.15,2013-03-05 05:37:00,
2013-03-04 23:43:00,27.9,25.1,29.97,East,101,1.0,3.0,89,0.00,,,0.13,Wunderground v.1.15,2013-03-05 05:43:00,
2013-03-04 23:48:00,28.0,25.2,29.97,East,101,5.0,5.0,89,0.00,,,0.13,Wunderground v.1.15,2013-03-05 05:48:00,
2013-03-04 23:53:00,28.0,25.2,29.97,East,96,5.0,5.0,89,0.00,,,0.13,Wunderground v.1.15,2013-03-05 05:53:00,
2013-03-04 23:58:00,28.1,25.3,29.96,East,94,1.0,9.0,89,0.00,,,0.00,Wunderground v.1.15,2013-03-05 05:58:00,